THORAD DELTA 1 DEB, 8166

Orbit data source: Space-Track

THORAD DELTA 1 DEB, 8166 is space debris in SSO originally from a launch on Fri, 15 Nov 1974 UTC launched from the Air Force Western Test Range (AFWTR). Debris objects in space refer to the collection of defunct objects orbiting the Earth. Examples of debris include non-operational satellites, rocket bodies, and fragments generated from explosions, collisions, or faulty payload assembly.

Loading next visibility...
Identifier
8166, 1974-089AG
Orbit
SSO
Last TLE update
1 week ago
Origin
Manufacturer
Unknown
Mission
Spacecraft
Bus & Motor
Unknown
Mass
Unknown
Launch date (UTC)
1974-11-15 (51 years ago)
Launch vehicle
Unknown
Launch site
Air Force Western Test Range (AFWTR)
Object type
Payload
Rocket body
Debris
Shape & HBR
Unknown
Radar Cross Section
Small (<0.1 m²)

Expand to show TLE details & history

TLE from 1 week ago
0 THORAD DELTA 1 DEB
1 08166U 74089AG  25179.48807358  .00000006  00000-0  33673-3 0  9997
2 08166 101.9900 168.5683 0038302 313.0573 201.0080 12.51590743309705
Epoch: 2025-06-28T11:42Z
TLE epoch observation values (Epoch: 2025-06-28T11:42:49.557Z)
Latitude
25.5116°
Longitude
-98.1757°
Altitude
1,488.672 km
Speed
7.109 km/s
True Right ascension
23h 37m 25s
True Declination
25° 23' 26"
Sunlit
Object was in daylight at epoch
Visualization orbit readout
Latitude
53.07877°
Longitude
-80.15788°
Altitude
1,496.121 km
Speed
7.107 km/s
Apparent Right ascension
23h 20m 20s
Apparent Declination
13° 49' 45"
Sunlit
Object is in daylight
Visualization observer readout
Local Sidereal Time
09:54:15
Azimuth
334.971° NNW
Elevation
-32.646°
Doppler factor
1
Orbital elements
Apogee altitude
1,485.411 km
Perigee altitude
1,425.403 km
Semi-major axis
7,833.544 km
Eccentricity
0.00383
Inclination
101.99°
RAAN
168.5683°
Arg. of periapsis
313.0573°
True anomaly
Unknown
Mean anomaly
201.008°
Eccentric anomaly
Unknown
Mean motion
3.13044 °/min
Orbital period
115 mins
BSTAR
0.00033673
Loading maneuver chart data...
Loading SW <> Apogee altitude chart data...
Loading historical data...
Loading historical data...
Loading historical data...
Loading historical data...
Loading historical data...
Loading historical data...
Loading historical data...

THORAD DELTA 1 DEB Visibility forecast

Observer location: undefined°, undefined°

Span
Click to sort rows by Start time (UTC) header in descending order
Start Az.
Max El. time (UTC)
Max El. Az.
Max El.
End time (UTC)
End Az.
16 mins2025-07-05 23:18:08.195Z170.476° S2025-07-05 23:26:08.195Z271.627° WNW43.408°2025-07-05 23:34:08.195Z338.471° N
13 mins2025-07-06 11:23:08.195Z38.385° NE2025-07-06 11:29:08.195Z98.791° ESE33.267°2025-07-06 11:36:08.195Z164.738° S
13 mins2025-07-06 13:16:08.195Z0.738° NNE2025-07-06 13:22:08.195Z296.569° NW35.939°2025-07-06 13:29:08.195Z230.64° WSW
5 mins2025-07-06 20:35:08.195Z59.121° ENE2025-07-06 20:37:08.195Z44.433° NE12.248°2025-07-06 20:40:08.195Z22.819° NE
|